Flag for Croatia Weather past 2 weeks in Dubrovnik, Croatia

Now
50 °F

Broken clouds.


Feels Like: 43 °F
Forecast: 28 / 36 °F
Wind: 22 mph from South

Location: Dubrovnik / Cilipi

Current Time: Dec 28, 2014 at 8:35:42 AM

Latest Report: Dec 28, 2014 at 8:00 AM


Visibility: N/A

Pressure: 29.47 "Hg

Humidity: 88%

Dew point: 46 °F

Location of DubrovnikLocation

Historic Weather in Dubrovnik — Graph

°F

Dubrovnik temperature yesterday

Maximum temperature yesterday: 45 °F (at 12:30 PM)
Minimum temperature yesterday: 36 °F (at 7:00 AM)
Average temperature yesterday: 40 °F

Past Weeks' High & Low Weather Summary

 TemperatureHumidityPressure
High61 °F (Dec 14, 12:30 PM)100% (Dec 16, 8:30 AM)30.48 "Hg (Dec 16, 8:30 AM)
Low36 °F (Dec 27, 7:00 AM)22% (Dec 21, 3:00 PM)29.47 "Hg (Dec 28, 6:30 AM)
Average50 °F69%30.15 "Hg
* Reported Dec 13 7:00 AM — Dec 28 7:30 AM, Dubrovnik, Weather by CustomWeather, © 2014

Note: Actual official high and low records may vary slightly from our data, if they occured in-between our weather recording intervals... More about our weather records

Advertising

Dubrovnik weather history for previous 24 hours

 ConditionsComfort  
Time TempWeatherWind HumidityBarometerVisibility
7:30 AM
Dec 28
50 °FBroken clouds.23 mph82%29.47 "HgN/A
7:00 AM41 °FPartly cloudy.18 mph93%29.47 "HgN/A
6:30 AM39 °FRain. Passing clouds.32 mph93%29.47 "Hg3 mi
6:00 AM37 °FThunderstorms. Passing clouds.36 mph93%29.50 "Hg3 mi
5:30 AM37 °FThunderstorms. Passing clouds.35 mph93%29.53 "Hg2 mi
4:30 AM37 °FRain. Partly cloudy.33 mph100%29.56 "Hg3 mi
4:00 AM37 °FRain. Passing clouds.31 mph100%29.59 "Hg3 mi
3:30 AM37 °FLight rain. Passing clouds.33 mph93%29.59 "HgN/A
3:00 AM37 °FLight rain. Passing clouds.32 mph93%29.62 "HgN/A
2:30 AM39 °FLight rain. Passing clouds.32 mph87%29.65 "HgN/A
2:00 AM39 °FLight rain. Passing clouds.32 mph81%29.65 "HgN/A
1:30 AM39 °FLight rain. Passing clouds.31 mph81%29.68 "HgN/A
1:00 AM39 °FLight rain. Passing clouds.26 mph81%29.71 "HgN/A
12:30 AM41 °FLight rain. Passing clouds.23 mph70%29.74 "HgN/A
12:00 AM41 °FLight rain. Passing clouds.26 mph66%29.74 "HgN/A
11:30 PM
Dec 27
41 °FPassing clouds.23 mph57%29.77 "HgN/A
11:00 PM41 °FClear.21 mph57%29.80 "Hg10 mi
10:30 PM41 °FClear.17 mph53%29.80 "Hg10 mi
10:00 PM41 °FClear.20 mph53%29.80 "Hg10 mi
9:30 PM39 °FClear.13 mph56%29.83 "Hg10 mi
9:00 PM39 °FClear.13 mph52%29.83 "Hg10 mi
8:30 PM37 °FClear.12 mph52%29.86 "Hg10 mi
8:00 PM37 °FPassing clouds.12 mph52%29.86 "HgN/A
7:30 PM37 °FClear.9 mph52%29.86 "Hg10 mi
7:00 PM37 °FClear.9 mph48%29.86 "Hg10 mi
6:30 PM37 °FClear.9 mph48%29.89 "Hg10 mi
6:00 PM37 °FClear.8 mph48%29.89 "Hg10 mi
5:30 PM37 °FPassing clouds.6 mph52%29.89 "HgN/A
5:00 PM37 °FClear.8 mph52%29.89 "Hg10 mi
4:30 PM41 °FPassing clouds.2 mph45%29.89 "HgN/A
4:00 PM43 °FPassing clouds.8 mph42%29.92 "HgN/A
3:30 PM45 °FPassing clouds.8 mph39%29.92 "HgN/A
3:00 PM45 °FPassing clouds.6 mph39%29.92 "HgN/A
2:30 PM45 °FPassing clouds.7 mph37%29.92 "HgN/A
2:00 PM45 °FPassing clouds.8 mph31%29.92 "HgN/A
1:30 PM45 °FPassing clouds.7 mph31%29.92 "HgN/A
1:00 PM45 °FPassing clouds.8 mph31%29.95 "HgN/A
12:30 PM45 °FPassing clouds.12 mph29%29.95 "HgN/A
12:00 PM43 °FPassing clouds.15 mph29%29.98 "HgN/A
11:30 AM43 °FPassing clouds.17 mph29%29.98 "HgN/A
11:00 AM41 °FPassing clouds.21 mph31%29.98 "HgN/A
10:30 AM39 °FSunny.25 mph33%30.01 "Hg10 mi
10:00 AM39 °FPassing clouds.25 mph33%30.01 "HgN/A
9:30 AM37 °FPassing clouds.30 mph35%30.01 "HgN/A
9:00 AM37 °FPassing clouds.32 mph35%30.01 "HgN/A
8:30 AM37 °FPassing clouds.30 mph35%30.01 "HgN/A
8:00 AM37 °FPassing clouds.31 mph35%30.01 "HgN/A
Weather by CustomWeather, © 2014

See weather overviewHow to use our weather pages